N417JT KMDW-KGTU

Flight info

Callsign N417JT
Flight time N/A
Altitude 30000
Route ACITO ADELL ARLYN STL HRO PRX SSOLO
Aircraft SF50/L-BDGRSWY/LB2U2

Departure

Time N/A
Airport Chicago Midway International Airport (KMDW)

Arrival

Time 2026-05-04 21:16
Airport Georgetown Executive Airport at Johnny Gantt Field (KGTU)
Time Latitude Longitude Altitude Speed Heading
2026-05-04 20:15 34.48086 -94.71306 29890 ft 286 kts 228°
2026-05-04 20:15 34.46420 -94.72627 29885 ft 286 kts 229°
2026-05-04 20:15 34.44753 -94.73952 29884 ft 286 kts 228°
2026-05-04 20:16 34.43087 -94.75272 29886 ft 286 kts 228°
2026-05-04 20:16 34.41424 -94.76588 29886 ft 285 kts 228°
2026-05-04 20:16 34.39791 -94.77882 29885 ft 284 kts 229°
2026-05-04 20:16 34.38124 -94.79203 29845 ft 284 kts 229°
2026-05-04 20:17 34.36487 -94.80497 29879 ft 284 kts 229°
2026-05-04 20:17 34.34825 -94.81815 29884 ft 285 kts 229°
2026-05-04 20:17 34.33169 -94.83126 29883 ft 287 kts 229°
2026-05-04 20:17 34.31498 -94.84446 29888 ft 287 kts 229°
2026-05-04 20:18 34.29815 -94.85776 29886 ft 288 kts 229°
2026-05-04 20:18 34.28133 -94.87103 29887 ft 288 kts 229°
2026-05-04 20:18 34.26454 -94.88426 29886 ft 287 kts 229°
2026-05-04 20:18 34.24782 -94.89745 29886 ft 286 kts 229°
2026-05-04 20:19 34.23136 -94.91045 29884 ft 285 kts 229°
2026-05-04 20:19 34.21471 -94.92362 29889 ft 284 kts 229°
2026-05-04 20:19 34.19810 -94.93673 29892 ft 285 kts 229°
2026-05-04 20:19 34.18140 -94.94979 29889 ft 285 kts 229°
2026-05-04 20:20 34.16474 -94.96287 29887 ft 285 kts 230°
2026-05-04 20:20 34.14827 -94.97587 29886 ft 284 kts 230°
2026-05-04 20:20 34.13170 -94.98891 29887 ft 284 kts 230°
2026-05-04 20:20 34.11506 -95.00197 29886 ft 284 kts 230°
2026-05-04 20:21 34.09879 -95.01468 29895 ft 281 kts 231°
2026-05-04 20:21 34.08240 -95.02758 29893 ft 281 kts 231°
2026-05-04 20:21 34.04959 -95.05338 29891 ft 281 kts 231°
2026-05-04 20:22 34.03310 -95.06632 29887 ft 283 kts 231°
2026-05-04 20:22 34.01654 -95.07928 29888 ft 284 kts 231°
2026-05-04 20:22 34.00014 -95.09211 29896 ft 284 kts 231°
2026-05-04 20:22 33.98353 -95.10513 29894 ft 285 kts 231°
2026-05-04 20:23 33.96693 -95.11813 29896 ft 284 kts 231°
2026-05-04 20:23 33.95036 -95.13109 29895 ft 284 kts 231°
2026-05-04 20:23 33.93376 -95.14403 29895 ft 283 kts 231°
2026-05-04 20:23 33.91724 -95.15695 29894 ft 283 kts 231°
2026-05-04 20:24 33.90072 -95.16986 29896 ft 283 kts 231°
2026-05-04 20:24 33.88443 -95.18256 29894 ft 282 kts 231°
2026-05-04 20:24 33.86796 -95.19541 29895 ft 282 kts 231°
2026-05-04 20:24 33.85153 -95.20824 29896 ft 282 kts 231°
2026-05-04 20:25 33.83509 -95.22105 29893 ft 280 kts 232°
2026-05-04 20:25 33.81866 -95.23385 29893 ft 282 kts 232°
2026-05-04 20:25 33.80217 -95.24672 29894 ft 283 kts 232°
2026-05-04 20:25 33.78563 -95.25962 29902 ft 284 kts 232°
2026-05-04 20:26 33.76899 -95.27254 29903 ft 284 kts 231°
2026-05-04 20:26 33.75236 -95.28549 29904 ft 285 kts 231°
2026-05-04 20:26 33.73579 -95.29837 29910 ft 286 kts 231°
2026-05-04 20:26 33.71907 -95.31136 29911 ft 286 kts 231°
2026-05-04 20:27 33.70236 -95.32434 29915 ft 286 kts 231°
2026-05-04 20:27 33.68569 -95.33724 29905 ft 284 kts 231°
2026-05-04 20:27 33.66915 -95.35006 29908 ft 282 kts 232°
2026-05-04 20:27 33.65270 -95.36283 29908 ft 281 kts 232°
2026-05-04 20:28 33.63626 -95.37559 29909 ft 281 kts 232°
2026-05-04 20:28 33.61994 -95.38828 29907 ft 282 kts 232°
2026-05-04 20:28 33.60334 -95.40111 29908 ft 283 kts 232°
2026-05-04 20:28 33.58673 -95.41395 29908 ft 284 kts 232°
2026-05-04 20:29 33.57010 -95.42682 29908 ft 285 kts 232°
2026-05-04 20:29 33.55343 -95.43971 29909 ft 284 kts 232°
2026-05-04 20:29 33.53684 -95.45254 29910 ft 284 kts 232°
2026-05-04 20:29 33.52029 -95.46554 29910 ft 284 kts 232°
2026-05-04 20:30 33.50375 -95.47859 29910 ft 285 kts 232°
2026-05-04 20:30 33.48736 -95.49143 29923 ft 285 kts 232°
2026-05-04 20:30 33.47074 -95.50443 29907 ft 286 kts 232°
2026-05-04 20:30 33.45408 -95.51747 29907 ft 285 kts 232°
2026-05-04 20:31 33.43743 -95.53050 29906 ft 286 kts 232°
2026-05-04 20:31 33.42080 -95.54349 29907 ft 285 kts 232°
2026-05-04 20:31 33.40416 -95.55648 29906 ft 285 kts 232°
2026-05-04 20:31 33.38754 -95.56948 29915 ft 285 kts 232°
2026-05-04 20:32 33.37096 -95.58243 29915 ft 284 kts 232°
2026-05-04 20:32 33.35438 -95.59536 29917 ft 284 kts 232°
2026-05-04 20:32 33.33795 -95.60817 29920 ft 284 kts 232°
2026-05-04 20:32 33.32142 -95.62106 29920 ft 284 kts 232°
2026-05-04 20:33 33.30490 -95.63395 29901 ft 283 kts 232°
2026-05-04 20:33 33.28838 -95.64684 29895 ft 283 kts 232°
2026-05-04 20:33 33.27185 -95.65971 29895 ft 284 kts 232°
2026-05-04 20:33 33.25531 -95.67257 29895 ft 283 kts 232°
2026-05-04 20:34 33.23880 -95.68542 29894 ft 283 kts 232°
2026-05-04 20:34 33.22230 -95.69828 29895 ft 283 kts 232°
2026-05-04 20:34 33.20572 -95.71116 29864 ft 283 kts 231°
2026-05-04 20:34 33.18923 -95.72395 29896 ft 282 kts 232°
2026-05-04 20:35 33.17275 -95.73677 29898 ft 282 kts 232°
2026-05-04 20:35 33.15650 -95.74938 29898 ft 282 kts 231°
2026-05-04 20:35 33.14004 -95.76215 29898 ft 282 kts 232°
2026-05-04 20:35 33.12362 -95.77489 29902 ft 282 kts 232°
2026-05-04 20:36 33.10716 -95.78763 29899 ft 282 kts 232°
2026-05-04 20:36 33.09074 -95.80035 29899 ft 282 kts 232°
2026-05-04 20:36 33.07425 -95.81312 29900 ft 282 kts 232°
2026-05-04 20:36 33.05778 -95.82587 29900 ft 281 kts 232°
2026-05-04 20:37 33.04135 -95.83860 29890 ft 282 kts 232°
2026-05-04 20:37 33.02506 -95.85121 29890 ft 282 kts 231°
2026-05-04 20:37 33.00862 -95.86392 29897 ft 281 kts 231°
2026-05-04 20:37 32.99220 -95.87662 29898 ft 282 kts 231°
2026-05-04 20:38 32.97567 -95.88939 29895 ft 283 kts 231°
2026-05-04 20:38 32.95912 -95.90218 29895 ft 284 kts 231°
2026-05-04 20:38 32.94251 -95.91500 29896 ft 284 kts 231°
2026-05-04 20:38 32.92589 -95.92782 29897 ft 285 kts 231°
2026-05-04 20:39 32.90923 -95.94065 29897 ft 285 kts 231°
2026-05-04 20:39 32.89257 -95.95348 29899 ft 285 kts 231°
2026-05-04 20:39 32.87611 -95.96616 29900 ft 285 kts 231°
2026-05-04 20:39 32.85944 -95.97898 29901 ft 285 kts 231°
2026-05-04 20:40 32.84267 -95.99189 29903 ft 285 kts 231°
2026-05-04 20:40 32.82599 -96.00473 29904 ft 286 kts 231°
2026-05-04 20:40 32.80926 -96.01758 29904 ft 286 kts 231°
2026-05-04 20:40 32.79258 -96.03041 29907 ft 286 kts 231°
2026-05-04 20:41 32.77589 -96.04324 29911 ft 286 kts 231°
2026-05-04 20:41 32.75919 -96.05607 29911 ft 286 kts 231°
2026-05-04 20:41 32.74265 -96.06877 29898 ft 286 kts 231°
2026-05-04 20:41 32.72601 -96.08150 29907 ft 283 kts 231°
2026-05-04 20:42 32.70949 -96.09417 29905 ft 281 kts 230°
2026-05-04 20:42 32.69312 -96.10671 29905 ft 279 kts 230°
2026-05-04 20:42 32.67684 -96.11922 29905 ft 277 kts 231°
2026-05-04 20:42 32.66061 -96.13164 29907 ft 278 kts 231°
2026-05-04 20:43 32.64434 -96.14413 29907 ft 279 kts 230°
2026-05-04 20:43 32.62822 -96.15645 29908 ft 279 kts 230°
2026-05-04 20:43 32.61181 -96.16899 29908 ft 280 kts 230°
2026-05-04 20:43 32.59545 -96.18148 29908 ft 280 kts 230°
2026-05-04 20:44 32.57905 -96.19402 29908 ft 280 kts 230°
2026-05-04 20:44 32.56261 -96.20658 29908 ft 280 kts 230°
2026-05-04 20:44 32.54622 -96.21909 29908 ft 281 kts 230°
2026-05-04 20:44 32.52999 -96.23148 29908 ft 281 kts 230°
2026-05-04 20:45 32.51356 -96.24403 29909 ft 281 kts 230°
2026-05-04 20:45 32.49711 -96.25658 29908 ft 282 kts 230°
2026-05-04 20:45 32.48064 -96.26912 29906 ft 282 kts 230°
2026-05-04 20:45 32.46412 -96.28170 29905 ft 282 kts 230°
2026-05-04 20:46 32.44768 -96.29422 29901 ft 280 kts 230°
2026-05-04 20:46 32.43127 -96.30672 29900 ft 280 kts 230°
2026-05-04 20:46 32.41484 -96.31923 29900 ft 280 kts 230°
2026-05-04 20:46 32.39843 -96.33168 29899 ft 280 kts 230°
2026-05-04 20:47 32.38196 -96.34421 29897 ft 280 kts 230°
2026-05-04 20:47 32.36577 -96.35651 29899 ft 280 kts 230°
2026-05-04 20:47 32.34935 -96.36898 29904 ft 280 kts 230°
2026-05-04 20:47 32.33288 -96.38146 29912 ft 280 kts 230°
2026-05-04 20:48 32.31649 -96.39390 29906 ft 280 kts 230°
2026-05-04 20:48 32.30005 -96.40637 29909 ft 280 kts 230°
2026-05-04 20:48 32.28384 -96.41868 29910 ft 280 kts 230°
2026-05-04 20:48 32.26743 -96.43111 29913 ft 280 kts 230°
2026-05-04 20:49 32.25100 -96.44356 29913 ft 280 kts 230°
2026-05-04 20:49 32.23457 -96.45599 29921 ft 279 kts 230°
2026-05-04 20:49 32.21841 -96.46823 29902 ft 279 kts 230°
2026-05-04 20:49 32.20204 -96.48062 29928 ft 278 kts 230°
2026-05-04 20:50 32.18574 -96.49295 29924 ft 278 kts 230°
2026-05-04 20:50 32.16944 -96.50527 29928 ft 278 kts 230°
2026-05-04 20:50 32.15332 -96.51746 29928 ft 278 kts 230°
2026-05-04 20:50 32.13695 -96.52982 29929 ft 279 kts 230°
2026-05-04 20:51 32.12057 -96.54218 29927 ft 280 kts 230°
2026-05-04 20:51 32.10417 -96.55454 29927 ft 280 kts 230°
2026-05-04 20:51 32.08768 -96.56698 29900 ft 281 kts 230°
2026-05-04 20:51 32.07122 -96.57938 29899 ft 281 kts 230°
2026-05-04 20:52 32.05476 -96.59178 29901 ft 281 kts 230°
2026-05-04 20:52 32.03848 -96.60403 29902 ft 281 kts 230°
2026-05-04 20:52 32.02197 -96.61649 29902 ft 281 kts 230°
2026-05-04 20:52 32.00546 -96.62891 29907 ft 281 kts 230°
2026-05-04 20:53 31.98896 -96.64133 29904 ft 281 kts 230°
2026-05-04 20:53 31.97239 -96.65380 29904 ft 281 kts 230°
2026-05-04 20:53 31.95600 -96.66611 29904 ft 281 kts 230°
2026-05-04 20:53 31.93949 -96.67852 29904 ft 282 kts 230°
2026-05-04 20:54 31.92295 -96.69095 29904 ft 282 kts 230°
2026-05-04 20:54 31.90633 -96.70343 29718 ft 283 kts 230°
2026-05-04 20:54 31.88981 -96.71576 29344 ft 278 kts 230°
2026-05-04 20:54 31.87374 -96.72775 29002 ft 276 kts 230°
2026-05-04 20:55 31.85757 -96.74001 28644 ft 278 kts 230°
2026-05-04 20:55 31.84116 -96.75236 28273 ft 280 kts 229°
2026-05-04 20:55 31.82480 -96.76455 27906 ft 282 kts 228°
2026-05-04 20:55 31.80816 -96.77698 27531 ft 283 kts 228°
2026-05-04 20:56 31.79152 -96.78944 27154 ft 283 kts 228°
2026-05-04 20:56 31.77491 -96.80186 26786 ft 283 kts 228°
2026-05-04 20:56 31.75823 -96.81434 26411 ft 284 kts 227°
2026-05-04 20:56 31.74158 -96.82678 26037 ft 284 kts 227°
2026-05-04 20:57 31.73053 -96.83504 25788 ft 284 kts 227°
2026-05-04 20:57 31.70828 -96.85166 25280 ft 286 kts 227°
2026-05-04 20:57 31.69142 -96.86427 24902 ft 288 kts 226°
2026-05-04 20:57 31.67447 -96.87693 24525 ft 289 kts 226°
2026-05-04 20:58 31.66316 -96.88536 24271 ft 290 kts 226°
2026-05-04 20:58 31.64045 -96.90229 23790 ft 292 kts 225°
2026-05-04 20:58 31.62323 -96.91513 23385 ft 293 kts 225°
2026-05-04 20:58 31.61159 -96.92379 23091 ft 293 kts 225°
2026-05-04 20:59 31.59455 -96.93646 22710 ft 295 kts 225°
2026-05-04 20:59 31.57708 -96.94951 22324 ft 299 kts 224°
2026-05-04 20:59 31.55942 -96.96263 21927 ft 300 kts 224°
2026-05-04 20:59 31.54176 -96.97569 21533 ft 300 kts 223°
2026-05-04 21:00 31.52406 -96.98888 21130 ft 299 kts 223°
2026-05-04 21:00 31.50642 -97.00201 20732 ft 301 kts 223°
2026-05-04 21:00 31.48888 -97.01503 20338 ft 303 kts 223°
2026-05-04 21:00 31.47097 -97.02832 19934 ft 305 kts 222°
2026-05-04 21:01 31.45294 -97.04170 19528 ft 306 kts 221°
2026-05-04 21:01 31.43489 -97.05508 19123 ft 308 kts 221°
2026-05-04 21:01 31.41684 -97.06847 18714 ft 309 kts 221°
2026-05-04 21:01 31.39861 -97.08197 18292 ft 310 kts 221°
2026-05-04 21:02 31.38037 -97.09547 17848 ft 310 kts 220°
2026-05-04 21:02 31.36240 -97.10875 17439 ft 309 kts 220°
2026-05-04 21:02 31.34425 -97.12217 17085 ft 309 kts 220°
2026-05-04 21:02 31.32595 -97.13575 16684 ft 311 kts 220°
2026-05-04 21:03 31.30775 -97.14916 16274 ft 306 kts 220°
2026-05-04 21:03 31.28980 -97.16238 15873 ft 303 kts 220°
2026-05-04 21:03 31.27224 -97.17536 15479 ft 301 kts 220°
2026-05-04 21:03 31.25475 -97.18866 15081 ft 296 kts 223°
2026-05-04 21:04 31.23966 -97.20452 14695 ft 289 kts 233°
2026-05-04 21:04 31.22631 -97.22210 14323 ft 286 kts 234°
2026-05-04 21:04 31.21314 -97.23925 13968 ft 286 kts 233°
2026-05-04 21:04 31.19975 -97.25657 13589 ft 286 kts 233°
2026-05-04 21:05 31.18648 -97.27383 13197 ft 284 kts 233°
2026-05-04 21:05 31.17332 -97.29095 12803 ft 282 kts 233°
2026-05-04 21:05 31.16025 -97.30794 12406 ft 279 kts 233°
2026-05-04 21:05 31.14730 -97.32476 12022 ft 278 kts 233°
2026-05-04 21:06 31.13455 -97.34132 11649 ft 277 kts 233°
2026-05-04 21:06 31.12170 -97.35801 11287 ft 275 kts 232°
2026-05-04 21:06 31.10886 -97.37467 10910 ft 276 kts 232°
2026-05-04 21:06 31.09598 -97.39139 10559 ft 276 kts 232°
2026-05-04 21:07 31.08318 -97.40798 10206 ft 274 kts 232°
2026-05-04 21:07 31.07064 -97.42422 9864 ft 272 kts 232°
2026-05-04 21:07 31.05799 -97.44063 9480 ft 271 kts 232°
2026-05-04 21:07 31.04543 -97.45689 9094 ft 269 kts 232°
2026-05-04 21:08 31.03295 -97.47302 8714 ft 266 kts 231°
2026-05-04 21:08 31.02058 -97.48903 8344 ft 267 kts 231°
2026-05-04 21:08 31.00811 -97.50515 7966 ft 264 kts 231°
2026-05-04 21:08 30.99603 -97.52074 7626 ft 258 kts 230°
2026-05-04 21:09 30.98387 -97.53643 7302 ft 261 kts 230°
2026-05-04 21:09 30.97172 -97.55217 6991 ft 261 kts 230°
2026-05-04 21:09 30.95967 -97.56774 6673 ft 256 kts 230°
2026-05-04 21:09 30.94781 -97.58302 6332 ft 255 kts 229°
2026-05-04 21:10 30.93586 -97.59838 5978 ft 256 kts 229°
2026-05-04 21:10 30.92416 -97.61357 5656 ft 250 kts 228°
2026-05-04 21:10 30.91265 -97.62846 5302 ft 245 kts 226°
2026-05-04 21:10 30.90117 -97.64321 4983 ft 246 kts 226°
2026-05-04 21:11 30.88967 -97.65800 4662 ft 246 kts 225°
2026-05-04 21:11 30.87809 -97.67177 4382 ft 225 kts 215°
2026-05-04 21:11 30.86392 -97.67613 4134 ft 208 kts 176°
2026-05-04 21:11 30.85019 -97.67181 3902 ft 207 kts 166°
2026-05-04 21:12 30.83621 -97.66801 3650 ft 204 kts 174°
2026-05-04 21:12 30.82243 -97.66763 3396 ft 193 kts 184°
2026-05-04 21:12 30.80931 -97.66893 3153 ft 185 kts 185°
2026-05-04 21:12 30.79653 -97.67000 2920 ft 185 kts 184°
2026-05-04 21:13 30.78342 -97.67091 2682 ft 190 kts 185°
2026-05-04 21:13 30.77041 -97.67184 2440 ft 188 kts 184°
2026-05-04 21:13 30.75766 -97.67276 2201 ft 175 kts 185°
2026-05-04 21:13 30.74635 -97.67354 2001 ft 147 kts 184°
2026-05-04 21:14 30.73696 -97.67423 1814 ft 120 kts 184°
2026-05-04 21:14 30.72985 -97.67456 1638 ft 91 kts 181°
2026-05-04 21:14 30.72373 -97.67490 1538 ft 86 kts 187°
2026-05-04 21:14 30.71789 -97.67567 1416 ft 87 kts 182°
2026-05-04 21:15 30.71203 -97.67604 1344 ft 83 kts 182°
2026-05-04 21:15 30.70618 -97.67667 1259 ft 89 kts 181°
2026-05-04 21:15 30.69964 -97.67680 1181 ft 96 kts 184°
2026-05-04 21:15 30.69298 -97.67746 1010 ft 95 kts 181°
2026-05-04 21:16 30.68655 -97.67792 850 ft 89 kts 180°
2026-05-04 21:16 30.68064 -97.67829 770 ft 78 kts 181°
2026-05-04 21:16 30.67646 -97.67859 768 ft 45 kts 184°
2026-05-04 21:16 30.67485 -97.67857 764 ft 10 kts 108°
2026-05-04 21:17 30.67481 -97.67787 766 ft 8 kts 89°
2026-05-04 21:17 30.67515 -97.67740 767 ft 9 kts 14°
2026-05-04 21:17 30.67585 -97.67721 765 ft 12 kts 15°
2026-05-04 21:17 30.67676 -97.67695 764 ft 14 kts 13°
2026-05-04 21:18 30.67764 -97.67670 765 ft 10 kts
2026-05-04 21:18 30.67801 -97.67713 767 ft 8 kts 339°
2026-05-04 21:18 30.67859 -97.67709 767 ft 9 kts
2026-05-04 21:18 30.67892 -97.67708 767 ft 3 kts
2026-05-04 21:19 30.67900 -97.67696 766 ft 0 kts 90°
2026-05-04 21:19 30.67900 -97.67695 766 ft 0 kts 112°
2026-05-04 21:20 30.67899 -97.67694 766 ft 0 kts 103°